• Join FlightAware (Why Join?)
  • Login
  • US Flag 
02:52AM EST


 

Airport Tracker/Info


-or-


 

Live Flight TrackerFlight Track Log ✈ TAM3951 ✈ 19-May-2014 ✈ SBRJ / SDU - SBSP / CGH

Flight Track Log - Related Links

Times and Time Zones

All times are in EDT time to prevent confusion due to time zone crossing. See the TAM3951 flight status page for this flight to view local times or setup timezone preferences in your user account.

Time Position Orientation Groundspeed Altitude Reporting Facility
EDT Latitude Longitude Course Direction KTS MPH feet Rate Location/Type
05:47PM -22.9351 -43.1485 128° Southeast 145 167 1,600  Level FlightAware ADS-B (SBRJ / SDU)
05:47PM -22.9443 -43.1353 127° Southeast 164 189 2,200 1,610 Climbing FlightAware ADS-B (SBRJ / SDU)
05:47PM -22.9536 -43.1215 127° Southeast 184 212 2,700 2,222 Climbing FlightAware ADS-B (SBRJ / SDU)
05:47PM -22.9675 -43.1099 147° Southeast 205 236 3,200 1,500 Climbing FlightAware ADS-B (SBGL / GIG)
05:48PM -22.9697 -43.1084 148° Southeast 209 241 3,200 2,800 Level FlightAware ADS-B (SBRJ / SDU)
05:48PM -22.9812 -43.1012 148° Southeast 211 243 3,900 2,625 Climbing FlightAware ADS-B (SBGL / GIG)
05:48PM -22.9826 -43.1005 162° South 213 245 3,900 2,880 Level FlightAware ADS-B (SBRJ / SDU)
05:48PM -23.0050 -43.0999 199° South 214 246 5,100 6,000 Climbing FlightAware ADS-B (SBGL / GIG)
05:48PM -22.9919 -43.0980 193° South 214 246 5,100 2,800 Level FlightAware ADS-B (SBRJ / SDU)
05:48PM -23.0170 -43.1100 228° Southwest 218 251 5,800 2,667 Climbing FlightAware ADS-B (SBGL / GIG)
05:48PM -23.0179 -43.1115 238° Southwest 220 253 5,900 2,400 Climbing FlightAware ADS-B (SBGL / GIG)
05:49PM -23.0222 -43.1243 254° West 228 262 6,400 2,129 Climbing FlightAware ADS-B (SBGL / GIG)
05:49PM -23.0287 -43.1480 254° West 252 290 7,000 1,909 Climbing FlightAware ADS-B (SBGL / GIG)
05:49PM -23.0296 -43.1512 255° West 256 295 7,100 2,250 Climbing FlightAware ADS-B (SBGL / GIG)
05:49PM -23.0343 -43.1681 254° West 268 308 7,600 2,400 Climbing FlightAware ADS-B (SBGL / GIG)
05:49PM -23.0368 -43.1772 255° West 271 312 7,900 3,000 Climbing FlightAware ADS-B (SBGL / GIG)
05:49PM -23.0397 -43.1877 255° West 273 314 8,300 3,300 Climbing FlightAware ADS-B (SBGL / GIG)
05:50PM -23.0434 -43.2027 256° West 270 311 9,000 3,600 Climbing FlightAware ADS-B (SBGL / GIG)
05:50PM -23.0446 -43.2071 255° West 271 312 9,200 3,091 Climbing FlightAware ADS-B (SBGL / GIG)
05:50PM -23.0546 -43.2475 256° West 283 326 10,700 2,667 Climbing FlightAware ADS-B (SBGL / GIG)
05:50PM -23.0565 -43.2554 257° West 293 337 10,800 1,000 Climbing FlightAware ADS-B (SBGL / GIG)
05:51PM -23.0656 -43.2918 255° West 324 373 11,200 1,429 Climbing FlightAware ADS-B (SBGL / GIG)
05:51PM -23.0729 -43.3205 256° West 339 390 11,800 2,200 Climbing FlightAware ADS-B (SBGL / GIG)
05:51PM -23.0781 -43.3408 255° West 342 394 12,300 2,850 Climbing FlightAware ADS-B (SBGL / GIG)
05:52PM -23.0900 -43.3875 256° West 345 397 13,700 3,000 Climbing FlightAware ADS-B (SBGL / GIG)
05:52PM -23.0910 -43.3914 255° West 347 399 13,800 2,800 Climbing FlightAware ADS-B (SBGL / GIG)
05:52PM -23.1031 -43.4387 255° West 349 402 15,100 2,667 Climbing FlightAware ADS-B (SBGL / GIG)
05:53PM -23.1139 -43.4807 256° West 350 403 16,200 2,545 Climbing FlightAware ADS-B (SBGL / GIG)
05:53PM -23.1159 -43.4883 255° West 353 406 16,500 2,667 Climbing FlightAware ADS-B (SBGL / GIG)
05:53PM -23.1290 -43.5399 255° West 353 406 17,800 2,743 Climbing FlightAware ADS-B (SBGL / GIG)
05:53PM -23.1325 -43.5535 256° West 352 405 18,100 2,516 Climbing FlightAware ADS-B (SBGL / GIG)
05:54PM -23.1432 -43.5956 255° West 357 411 19,100 2,438 Climbing FlightAware ADS-B (SBGL / GIG)
05:54PM -23.1466 -43.6088 255° West 362 417 19,400 1,600 Climbing FlightAware ADS-B (SBGL / GIG)
05:54PM -23.1540 -43.6378 255° West 361 415 19,900 2,133 Climbing FlightAware ADS-B (SBGL / GIG)
05:55PM -23.1669 -43.6882 255° West 366 421 21,000 2,292 Climbing FlightAware ADS-B (SBGL / GIG)
05:56PM -23.1971 -43.8071 255° West 374 430 23,300 2,100 Climbing FlightAware ADS-B (SBGL / GIG)
05:56PM -23.2035 -43.8325 255° West 374 430 23,800 2,400 Climbing FlightAware ADS-B (SBGL / GIG)
05:56PM -23.2111 -43.8625 255° West 369 425 24,500 2,478 Climbing FlightAware ADS-B (SBGL / GIG)
05:57PM -23.2236 -43.9120 255° West 365 420 25,700 2,250 Climbing FlightAware ADS-B (SBGL / GIG)
05:57PM -23.2292 -43.9339 255° West 367 422 26,000 1,862 Climbing FlightAware ADS-B (SBGL / GIG)
05:57PM -23.2372 -43.9659 255° West 365 420 26,600 2,182 Climbing FlightAware ADS-B (SBGL / GIG)
05:58PM -23.2490 -44.0126 255° West 364 419 27,600 1,037 Climbing FlightAware ADS-B (SBGL / GIG)
05:58PM -23.2727 -44.1057 255° West 363 418 28,000 387 Climbing FlightAware ADS-B (SBGL / GIG)
05:59PM -23.2762 -44.1193 255° West 359 413 28,000  Level FlightAware ADS-B (SBGL / GIG)
06:03PM -23.3824 -44.5893 257° West 366 421 28,000  Level FlightAware ADS-B (SDAM)
06:04PM -23.3947 -44.6448 257° West 365 420 28,000  Level FlightAware ADS-B (SDAM)
06:04PM -23.4078 -44.7039 257° West 366 421 28,000  Level FlightAware ADS-B (SDAM)
06:05PM -23.4198 -44.7579 257° West 366 421 28,000  Level FlightAware ADS-B (SDAM)
06:05PM -23.4314 -44.8102 257° West 366 421 28,000  Level FlightAware ADS-B (SDAM)
06:06PM -23.4432 -44.8636 257° West 366 421 28,000  Level FlightAware ADS-B (SDAM)
06:06PM -23.4489 -44.8893 257° West 366 421 28,000  Level FlightAware ADS-B (SDAM)
06:07PM -23.4673 -44.9728 257° West 366 421 28,000  Level FlightAware ADS-B (SDAM)
06:07PM -23.4788 -45.0267 257° West 366 421 28,000  Level FlightAware ADS-B (SDAM)
06:08PM -23.4901 -45.0796 257° West 366 421 28,000  Level FlightAware ADS-B (SDAM)
06:08PM -23.5017 -45.1340 257° West 366 421 28,000  Level FlightAware ADS-B (SDAM)
06:09PM -23.5131 -45.1876 258° West 365 420 28,000  Level FlightAware ADS-B (SDAM)
06:09PM -23.5242 -45.2396 258° West 366 421 28,000  Level FlightAware ADS-B (SDAM)
06:10PM -23.5359 -45.2951 258° West 366 421 28,000  Level FlightAware ADS-B (SDAM)
06:10PM -23.5472 -45.3484 258° West 365 420 28,000  Level FlightAware ADS-B (SDAM)
06:11PM -23.5585 -45.4015 258° West 365 420 28,000  Level FlightAware ADS-B (SDAM)
06:11PM -23.5702 -45.4567 258° West 365 420 28,000  Level FlightAware ADS-B (SDAM)
06:12PM -23.5813 -45.5094 258° West 364 419 28,000  Level FlightAware ADS-B (SDAM)
06:12PM -23.5927 -45.5634 258° West 364 419 28,000 -98 Level FlightAware ADS-B (SDAM)
06:13PM -23.6039 -45.6170 258° West 364 419 27,900 -712 Descending FlightAware ADS-B (SDAM)
06:13PM -23.6151 -45.6701 258° West 349 402 27,300 -1,500 Descending FlightAware ADS-B (SDAM)
06:14PM -23.6255 -45.7201 258° West 343 395 26,400 -1,900 Descending FlightAware ADS-B (SDAM)
06:14PM -23.6362 -45.7706 258° West 340 391 25,400 -2,034 Descending FlightAware ADS-B (SDAM)
06:15PM -23.6469 -45.8216 258° West 338 389 24,400 -2,100 Descending FlightAware ADS-B (SDAM)
06:15PM -23.6565 -45.8693 258° West 336 387 23,300 -2,100 Descending FlightAware ADS-B (SDAM)
06:16PM -23.6670 -45.9195 258° West 335 386 22,300 -2,066 Descending FlightAware ADS-B (SDAM)
06:16PM -23.6774 -45.9700 258° West 334 384 21,200 -2,000 Descending FlightAware ADS-B (SDAM)
06:17PM -23.6872 -46.0165 257° West 332 382 20,300 -1,932 Descending FlightAware ADS-B (SDAM)
06:17PM -23.6980 -46.0677 258° West 329 379 19,300 -1,900 Descending FlightAware ADS-B (SDAM)
06:18PM -23.7077 -46.1152 258° West 326 375 18,400 -1,770 Descending FlightAware ADS-B (SDAM)
06:18PM -23.7178 -46.1644 258° West 325 374 17,500 -1,800 Descending FlightAware ADS-B (SDAM)
06:19PM -23.7277 -46.2119 258° West 325 374 16,600 -1,831 Descending FlightAware ADS-B (SDAM)
06:19PM -23.7377 -46.2597 258° West 325 374 15,700 -1,700 Descending FlightAware ADS-B (SDAM)
06:20PM -23.7471 -46.3060 258° West 325 374 14,900 -1,600 Descending FlightAware ADS-B (SDAM)
06:20PM -23.7571 -46.3557 258° West 322 371 14,100 -1,700 Descending FlightAware ADS-B (SDAM)
06:21PM -23.7670 -46.4038 258° West 321 369 13,200 -1,672 Descending FlightAware ADS-B (SDAM)
06:21PM -23.7767 -46.4509 258° West 318 366 12,400 -1,600 Descending FlightAware ADS-B (SDAM)
06:22PM -23.7859 -46.4970 258° West 316 364 11,600 -1,600 Descending FlightAware ADS-B (SDAM)
06:22PM -23.7955 -46.5448 258° West 313 360 10,800 -1,424 Descending FlightAware ADS-B (SDAM)
06:23PM -23.8041 -46.5868 258° West 312 359 10,200 -1,125 Descending FlightAware ADS-B (SDAM)
06:23PM -23.8103 -46.6178 258° West 289 333 9,900 -1,200 Descending FlightAware ADS-B (SBSP / CGH)
06:23PM -23.8146 -46.6388 258° West 290 334 9,500 -1,742 Descending FlightAware ADS-B (SBSP / CGH)
06:23PM -23.8182 -46.6608 268° West 288 331 9,000 -1,714 Descending FlightAware ADS-B (SBSP / CGH)
06:23PM -23.8178 -46.6679 277° West 287 330 8,900 -1,200 Descending FlightAware ADS-B (SBSP / CGH)
06:24PM -23.8164 -46.6751 287° West 286 329 8,800 -1,200 Descending FlightAware ADS-B (SBSP / CGH)
06:24PM -23.8139 -46.6819 295° West 285 328 8,700 -1,200 Descending FlightAware ADS-B (SBSP / CGH)
06:24PM -23.8104 -46.6882 303° West 284 327 8,600 -667 Descending FlightAware ADS-B (SBSP / CGH)
06:24PM -23.8065 -46.6932 314° West 282 325 8,600  Level FlightAware ADS-B (SBSP / CGH)
06:24PM -23.8015 -46.6980 322° Northwest 281 323 8,600 -545 Level FlightAware ADS-B (SBSP / CGH)
06:24PM -23.7961 -46.7020 328° Northwest 282 325 8,500 -480 Descending FlightAware ADS-B (SBSP / CGH)
06:24PM -23.7743 -46.7170 327° Northwest 280 322 8,400 -353 Descending FlightAware ADS-B (SBSP / CGH)
06:25PM -23.7582 -46.7286 327° Northwest 279 321 8,300 -400 Descending FlightAware ADS-B (SBSP / CGH)
06:25PM -23.7419 -46.7405 327° Northwest 280 322 8,200 -514 Descending FlightAware ADS-B (SBSP / CGH)
06:25PM -23.7199 -46.7567 326° Northwest 281 323 8,000 -462 Descending FlightAware ADS-B (SBSP / CGH)
06:25PM -23.7063 -46.7666 326° Northwest 280 322 7,900 -414 Descending FlightAware ADS-B (SBSP / CGH)
06:26PM -23.6910 -46.7778 327° Northwest 269 310 7,800 -511 Descending FlightAware ADS-B (SBSP / CGH)
06:26PM -23.6531 -46.8047 327° Northwest 241 277 7,500 -469 Descending FlightAware ADS-B (SDAM)
06:27PM -23.6291 -46.8218 327° Northwest 240 276 7,300 -522 Descending FlightAware ADS-B (SDAM)
06:27PM -23.6130 -46.8333 327° Northwest 212 244 7,100 -526 Descending FlightAware ADS-B (SDAM)
06:28PM -23.5828 -46.8548 327° Northwest 204 235 6,800 -453 Descending FlightAware ADS-B (SBSP / CGH)
06:28PM -23.5705 -46.8635 327° Northwest 204 235 6,700 -480 Descending FlightAware ADS-B (SBSP / CGH)
06:28PM -23.5621 -46.8694 327° Northwest 204 235 6,600 -375 Descending FlightAware ADS-B (SDAM)
06:28PM -23.5579 -46.8713 339° North 206 237 6,600 -600 Level FlightAware ADS-B (SBSP / CGH)
06:28PM -23.5535 -46.8724 350° North 208 239 6,500 -1,200 Descending FlightAware ADS-B (SBSP / CGH)
06:28PM -23.5529 -46.8724 343° North 207 238 6,500 -600 Level FlightAware ADS-B (SDAM)
06:28PM -23.5440 -46.8715 14° North 211 243 6,400 -429 Descending FlightAware ADS-B (SBSP / CGH)
06:28PM -23.5398 -46.8696 27° Northeast 212 244 6,400  Level FlightAware ADS-B (SBSP / CGH)
06:29PM -23.5359 -46.8667 39° Northeast 213 245 6,400 -600 Level FlightAware ADS-B (SBSP / CGH)
06:29PM -23.5322 -46.8625 48° Northeast 213 245 6,300 -545 Descending FlightAware ADS-B (SBSP / CGH)
06:29PM -23.5293 -46.8573 61° Northeast 209 241 6,300 -316 Level FlightAware ADS-B (SBSP / CGH)
06:29PM -23.5235 -46.8451 63° Northeast 203 234 6,200 -327 Descending FlightAware ADS-B (SDAM)
06:30PM -23.5064 -46.8111 60° Northeast 171 197 6,000 -290 Descending FlightAware ADS-B (SDAM)
06:30PM -23.4991 -46.7969 60° Northeast 167 192 5,900 -353 Descending FlightAware ADS-B (SBSP / CGH)
06:30PM -23.4936 -46.7865 60° Northeast 164 189 5,800 -621 Descending FlightAware ADS-B (SBSP / CGH)
06:30PM -23.4881 -46.7759 60° Northeast 165 190 5,600 -720 Descending FlightAware ADS-B (SBSP / CGH)
06:31PM -23.4846 -46.7680 71° East 164 189 5,500 -400 Descending FlightAware ADS-B (SBSP / CGH)
06:31PM -23.4844 -46.7640 90° East 162 186 5,500 -600 Level FlightAware ADS-B (SBSP / CGH)
06:31PM -23.4852 -46.7603 108° East 157 181 5,400 -600 Descending FlightAware ADS-B (SBSP / CGH)
06:31PM -23.4869 -46.7565 120° Southeast 153 176 5,400 -600 Level FlightAware ADS-B (SBSP / CGH)
06:31PM -23.4887 -46.7538 128° Southeast 153 176 5,300 -600 Descending FlightAware ADS-B (SBSP / CGH)
06:31PM -23.4914 -46.7509 137° Southeast 153 176 5,300 -600 Level FlightAware ADS-B (SBSP / CGH)
06:31PM -23.4944 -46.7483 143° Southeast 153 176 5,200 -900 Descending FlightAware ADS-B (SBSP / CGH)
06:31PM -23.5031 -46.7419 145° Southeast 153 176 5,000 -800 Descending FlightAware ADS-B (SBSP / CGH)
06:32PM -23.5116 -46.7360 148° Southeast 151 174 4,800 -774 Descending FlightAware ADS-B (SBSP / CGH)
06:32PM -23.5210 -46.7296 147° Southeast 151 174 4,600 -774 Descending FlightAware ADS-B (SBSP / CGH)
06:32PM -23.5299 -46.7235 148° Southeast 153 176 4,400 -828 Descending FlightAware ADS-B (SBSP / CGH)
06:32PM -23.5389 -46.7172 146° Southeast 152 175 4,200 -828 Descending FlightAware ADS-B (SBSP / CGH)
06:33PM -23.5475 -46.7112 148° Southeast 147 169 4,000 -800 Descending FlightAware ADS-B (SBSP / CGH)
06:33PM -23.5559 -46.7054 147° Southeast 140 161 3,800 -774 Descending FlightAware ADS-B (SBSP / CGH)
06:33PM -23.5644 -46.6997 148° Southeast 134 154 3,600 -600 Descending FlightAware ADS-B (SBSP / CGH)
06:33PM -23.5717 -46.6945 146° Southeast 131 151 3,500 -621 Descending FlightAware ADS-B (SBSP / CGH)
06:34PM -23.5796 -46.6890 147° Southeast 131 151 3,300 -800 Descending FlightAware ADS-B (SBSP / CGH)
06:34PM -23.5875 -46.6837 147° Southeast 131 151 3,100 -600 Descending FlightAware ADS-B (SBSP / CGH)
06:34PM -23.5951 -46.6784 147° Southeast 130 150 3,000 -600 Descending FlightAware ADS-B (SBSP / CGH)
06:34PM -23.6028 -46.6731 147° Southeast 133 153 2,800 -800 Descending FlightAware ADS-B (SBSP / CGH)
06:35PM -23.6103 -46.6678 147° Southeast 131 151 2,600 -600 Descending FlightAware ADS-B (SBSP / CGH)
06:35PM -23.6178 -46.6627 147° Southeast 129 148 2,500 -400 Descending FlightAware ADS-B (SBSP / CGH)